• în Republica Moldova
  • Lista ţărilor
  • Pe 7 zile
  • Temperatura apei
  • Hartă satelitară
  • Meteo pe hartă
  • Widget-uri
  • user-avatar
    Intrare

    Meteo pe oră la San Fernando de Apure

    Astăzi, 24 Martie, Duminică

    Timp Temperatura Precipitaţii Vânt Presiune Umiditate
    00:00 +34°C° 0 mm 3 m/s 754 mmHg 38%
    01:00 +33°C° 0 mm 3 m/s 754 mmHg 44%
    02:00 +32°C° 0 mm 4 m/s 754 mmHg 51%
    03:00 +32°C° 0 mm 4 m/s 754 mmHg 53%
    04:00 +30°C° 0 mm 4 m/s 754 mmHg 54%
    05:00 +29°C° 0 mm 4 m/s 754 mmHg 56%
    06:00 +30°C° 0 mm 4 m/s 755 mmHg 55%
    07:00 +30°C° 0 mm 4 m/s 755 mmHg 54%
    08:00 +30°C° 0 mm 5 m/s 756 mmHg 52%
    09:00 +33°C° 0 mm 5 m/s 756 mmHg 47%
    10:00 +35°C° 0 mm 4 m/s 756 mmHg 41%
    11:00 +36°C° 0 mm 4 m/s 756 mmHg 36%
    12:00 +38°C° 0 mm 4 m/s 755 mmHg 32%
    13:00 +40°C° 0 mm 4 m/s 754 mmHg 28%
    14:00 +42°C° 0 mm 3 m/s 753 mmHg 24%
    15:00 +42°C° 0 mm 3 m/s 752 mmHg 23%
    16:00 +42°C° 0 mm 3 m/s 751 mmHg 22%
    17:00 +42°C° 0 mm 3 m/s 750 mmHg 21%
    18:00 +39°C° 0 mm 2 m/s 750 mmHg 23%
    19:00 +37°C° 0 mm 2 m/s 751 mmHg 25%
    20:00 +34°C° 0 mm 1 m/s 751 mmHg 27%
    21:00 +34°C° 0 mm 1 m/s 752 mmHg 28%
    22:00 +33°C° 0 mm 1 m/s 752 mmHg 29%
    23:00 +32°C° 0 mm 1 m/s 753 mmHg 29%

    Mâine, 25 Martie, Luni

    Timp Temperatura Precipitaţii Vânt Presiune Umiditate
    00:00 +32°C° 0 mm 2 m/s 752 mmHg 35%
    01:00 +31°C° 0 mm 2 m/s 752 mmHg 41%
    02:00 +30°C° 0 mm 3 m/s 752 mmHg 47%
    03:00 +30°C° 0 mm 3 m/s 752 mmHg 50%
    04:00 +29°C° 0 mm 3 m/s 752 mmHg 53%
    05:00 +29°C° 0 mm 4 m/s 752 mmHg 56%
    06:00 +29°C° 0 mm 4 m/s 753 mmHg 56%
    07:00 +29°C° 0 mm 5 m/s 753 mmHg 55%
    08:00 +30°C° 0 mm 5 m/s 754 mmHg 54%
    09:00 +33°C° 0 mm 5 m/s 754 mmHg 49%
    10:00 +34°C° 0 mm 5 m/s 754 mmHg 44%
    11:00 +36°C° 0 mm 5 m/s 754 mmHg 38%
    12:00 +39°C° 0 mm 5 m/s 753 mmHg 34%
    13:00 +40°C° 0 mm 4 m/s 752 mmHg 31%
    14:00 +41°C° 0 mm 4 m/s 751 mmHg 27%
    15:00 +41°C° 0 mm 4 m/s 750 mmHg 26%
    16:00 +40°C° 0 mm 3 m/s 749 mmHg 25%
    17:00 +40°C° 0 mm 3 m/s 749 mmHg 24%
    18:00 +39°C° 0 mm 2 m/s 749 mmHg 26%
    19:00 +37°C° 0 mm 2 m/s 750 mmHg 29%
    20:00 +34°C° 0 mm 1 m/s 750 mmHg 31%
    21:00 +33°C° 0 mm 1 m/s 751 mmHg 32%
    22:00 +33°C° 0 mm 1 m/s 751 mmHg 33%
    23:00 +32°C° 0 mm 1 m/s 752 mmHg 34%

    Poimâine, 26 Martie, Marţi

    Timp Temperatura Precipitaţii Vânt Presiune Umiditate
    00:00 +32°C° 0 mm 2 m/s 752 mmHg 36%
    01:00 +32°C° 0 mm 2 m/s 751 mmHg 38%
    02:00 +31°C° 0 mm 3 m/s 751 mmHg 40%
    03:00 +31°C° 0 mm 3 m/s 751 mmHg 45%
    04:00 +30°C° 0 mm 4 m/s 751 mmHg 50%
    05:00 +29°C° 0 mm 4 m/s 751 mmHg 54%
    06:00 +29°C° 0 mm 4 m/s 752 mmHg 52%
    07:00 +30°C° 0 mm 5 m/s 753 mmHg 51%
    08:00 +30°C° 0 mm 5 m/s 753 mmHg 49%
    09:00 +33°C° 0 mm 5 m/s 753 mmHg 43%
    10:00 +35°C° 0 mm 5 m/s 753 mmHg 38%
    11:00 +37°C° 0 mm 5 m/s 754 mmHg 33%
    12:00 +38°C° 0 mm 4 m/s 752 mmHg 31%
    13:00 +41°C° 0 mm 4 m/s 751 mmHg 28%
    14:00 +42°C° 0 mm 4 m/s 750 mmHg 25%
    15:00 +42°C° 0 mm 3 m/s 749 mmHg 24%
    16:00 +42°C° 0 mm 3 m/s 748 mmHg 23%
    17:00 +42°C° 0 mm 3 m/s 748 mmHg 23%
    18:00 +39°C° 0 mm 2 m/s 748 mmHg 25%
    19:00 +37°C° 0 mm 2 m/s 749 mmHg 27%
    20:00 +35°C° 0 mm 1 m/s 749 mmHg 29%
    21:00 +34°C° 0 mm 1 m/s 750 mmHg 29%
    22:00 +33°C° 0 mm 1 m/s 750 mmHg 30%
    23:00 +33°C° 0 mm 1 m/s 751 mmHg 31%

    27 Martie, Miercuri

    Timp Temperatura Precipitaţii Vânt Presiune Umiditate
    00:00 +32°C° 0 mm 2 m/s 751 mmHg 34%
    01:00 +32°C° 0 mm 2 m/s 751 mmHg 37%
    02:00 +31°C° 0 mm 3 m/s 751 mmHg 40%
    03:00 +31°C° 0 mm 3 m/s 751 mmHg 43%
    04:00 +30°C° 0 mm 3 m/s 751 mmHg 47%
    05:00 +30°C° 0 mm 3 m/s 751 mmHg 50%
    06:00 +30°C° 0 mm 4 m/s 752 mmHg 50%
    07:00 +32°C° 0 mm 4 m/s 753 mmHg 50%
    08:00 +32°C° 0 mm 5 m/s 753 mmHg 51%
    09:00 +34°C° 0 mm 5 m/s 753 mmHg 47%
    10:00 +36°C° 0 mm 5 m/s 753 mmHg 42%
    11:00 +39°C° 0 mm 5 m/s 753 mmHg 38%
    12:00 +40°C° 0 mm 4 m/s 752 mmHg 34%
    13:00 +41°C° 0 mm 4 m/s 751 mmHg 30%
    14:00 +43°C° 0 mm 3 m/s 750 mmHg 27%
    15:00 +43°C° 0 mm 3 m/s 749 mmHg 26%
    16:00 +43°C° 0 mm 3 m/s 749 mmHg 26%
    17:00 +43°C° 0 mm 3 m/s 748 mmHg 25%
    18:00 +40°C° 0 mm 2 m/s 749 mmHg 27%
    19:00 +38°C° 0 mm 2 m/s 749 mmHg 30%
    20:00 +36°C° 0 mm 1 m/s 750 mmHg 32%
    21:00 +35°C° 0 mm 1 m/s 750 mmHg 33%
    22:00 +35°C° 0 mm 1 m/s 751 mmHg 34%
    23:00 +34°C° 0 mm 1 m/s 751 mmHg 35%

    28 Martie, Joi

    Timp Temperatura Precipitaţii Vânt Presiune Umiditate
    00:00 +35°C° 0 mm 2 m/s 751 mmHg 35%
    01:00 +35°C° 0 mm 2 m/s 751 mmHg 36%
    02:00 +35°C° 0 mm 2 m/s 751 mmHg 37%
    03:00 +34°C° 0 mm 3 m/s 751 mmHg 40%
    04:00 +33°C° 0 mm 3 m/s 751 mmHg 44%
    05:00 +31°C° 0 mm 3 m/s 752 mmHg 48%
    06:00 +31°C° 0 mm 3 m/s 752 mmHg 49%
    07:00 +31°C° 0 mm 3 m/s 753 mmHg 50%
    08:00 +33°C° 0 mm 4 m/s 754 mmHg 52%
    09:00 +34°C° 0 mm 4 m/s 754 mmHg 47%
    10:00 +36°C° 0 mm 3 m/s 754 mmHg 43%
    11:00 +38°C° 0 mm 3 m/s 754 mmHg 38%
    12:00 +39°C° 0 mm 3 m/s 753 mmHg 35%
    13:00 +41°C° 0 mm 2 m/s 752 mmHg 32%
    14:00 +42°C° 0 mm 2 m/s 751 mmHg 28%
    15:00 +41°C° 0 mm 1 m/s 750 mmHg 30%
    16:00 +40°C° 0 mm 1 m/s 750 mmHg 32%
    17:00 +39°C° 0 mm 1 m/s 750 mmHg 33%
    18:00 +37°C° 0.1 mm 1 m/s 750 mmHg 37%
    19:00 +36°C° 0.1 mm 1 m/s 751 mmHg 40%
    20:00 +35°C° 0.1 mm 1 m/s 751 mmHg 43%
    21:00 +34°C° 0.1 mm 1 m/s 752 mmHg 45%
    22:00 +34°C° 0.1 mm 1 m/s 752 mmHg 48%
    23:00 +33°C° 0.1 mm 1 m/s 753 mmHg 50%

    29 Martie, Vineri

    Timp Temperatura Precipitaţii Vânt Presiune Umiditate
    00:00 +33°C° 0.1 mm 1 m/s 753 mmHg 52%
    01:00 +32°C° 0.1 mm 1 m/s 752 mmHg 54%
    02:00 +32°C° 0.1 mm 1 m/s 752 mmHg 56%
    03:00 +31°C° 0.2 mm 1 m/s 752 mmHg 59%
    04:00 +31°C° 0.2 mm 1 m/s 752 mmHg 63%
    05:00 +30°C° 0.2 mm 1 m/s 752 mmHg 66%
    06:00 +30°C° 0.3 mm 1 m/s 753 mmHg 66%
    07:00 +30°C° 0.3 mm 1 m/s 754 mmHg 66%
    08:00 +30°C° 0.3 mm 1 m/s 754 mmHg 66%
    09:00 +32°C° 0.1 mm 1 m/s 754 mmHg 60%
    10:00 +33°C° 0.1 mm 1 m/s 754 mmHg 53%
    11:00 +36°C° 0.1 mm 2 m/s 754 mmHg 47%
    12:00 +36°C° 0 mm 1 m/s 754 mmHg 45%
    13:00 +36°C° 0 mm 1 m/s 753 mmHg 43%
    14:00 +37°C° 0 mm 1 m/s 752 mmHg 42%
    15:00 +37°C° 0 mm 1 m/s 751 mmHg 42%
    16:00 +36°C° 0 mm 1 m/s 751 mmHg 42%
    17:00 +36°C° 0 mm 1 m/s 750 mmHg 43%
    18:00 +35°C° 0.3 mm 1 m/s 751 mmHg 47%
    19:00 +34°C° 0.3 mm 1 m/s 751 mmHg 52%
    20:00 +32°C° 0.3 mm 2 m/s 752 mmHg 57%
    21:00 +32°C° 0.1 mm 2 m/s 752 mmHg 60%
    22:00 +31°C° 0.1 mm 2 m/s 753 mmHg 63%
    23:00 +31°C° 0.1 mm 3 m/s 753 mmHg 67%
    Arată mai mult